Time,TemperatureF,DewpointF,PressureIn,WindDirection,WindDirectionDegrees,WindSpeedMPH,WindSpeedGustMPH,Humidity,HourlyPrecipIn,Conditions,Clouds,dailyrainin,SoftwareType,DateUTC
2013-01-22 00:00:00,59.6,49.8,30.01,North,0,0.0,7.0,70,0.00,,,-99.99,WeatherLink 5.7,2013-01-22 05:00:00,
2013-01-22 00:15:00,59.4,49.6,30.01,North,0,0.0,5.0,70,0.00,,,-99.99,WeatherLink 5.7,2013-01-22 05:15:00,
2013-01-22 00:30:00,59.3,49.5,30.00,North,0,0.0,6.0,70,0.00,,,-99.99,WeatherLink 5.7,2013-01-22 05:30:00,
2013-01-22 00:45:00,59.3,49.5,30.00,North,0,0.0,5.0,70,0.00,,,-99.99,WeatherLink 5.7,2013-01-22 05:45:00,
2013-01-22 01:00:00,59.3,49.9,30.00,North,-999,0.0,0.0,71,0.00,,,-99.99,WeatherLink 5.7,2013-01-22 06:00:00,
2013-01-22 01:15:00,59.3,49.9,30.00,North,-999,0.0,0.0,71,0.00,,,-99.99,WeatherLink 5.7,2013-01-22 06:15:00,
2013-01-22 01:30:00,59.3,50.3,29.99,North,0,0.0,6.0,72,0.00,,,-99.99,WeatherLink 5.7,2013-01-22 06:30:00,
2013-01-22 01:45:00,59.3,50.3,29.99,North,0,1.0,7.0,72,0.00,,,-99.99,WeatherLink 5.7,2013-01-22 06:45:00,
2013-01-22 02:00:00,59.3,49.5,29.99,North,0,0.0,6.0,70,0.00,,,-99.99,WeatherLink 5.7,2013-01-22 07:00:00,
2013-01-22 02:15:00,59.3,49.1,29.99,North,0,1.0,7.0,69,0.00,,,-99.99,WeatherLink 5.7,2013-01-22 07:15:00,
2013-01-22 02:30:00,59.2,48.6,29.99,North,0,1.0,6.0,68,0.00,,,-99.99,WeatherLink 5.7,2013-01-22 07:30:00,
2013-01-22 02:45:00,59.1,47.7,29.99,North,-999,0.0,0.0,66,0.00,,,-99.99,WeatherLink 5.7,2013-01-22 07:45:00,
2013-01-22 03:00:00,58.9,47.2,29.99,North,0,0.0,9.0,65,0.00,,,-99.99,WeatherLink 5.7,2013-01-22 08:00:00,
2013-01-22 03:15:00,58.6,46.5,29.99,North,0,0.0,5.0,64,0.00,,,-99.99,WeatherLink 5.7,2013-01-22 08:15:00,
2013-01-22 03:30:00,58.3,45.3,29.98,North,0,0.0,5.0,62,0.00,,,-99.99,WeatherLink 5.7,2013-01-22 08:30:00,
2013-01-22 03:45:00,58.1,44.7,29.99,North,0,0.0,5.0,61,0.00,,,-99.99,WeatherLink 5.7,2013-01-22 08:45:00,
2013-01-22 04:00:00,58.0,44.2,29.99,North,0,0.0,3.0,60,0.00,,,-99.99,WeatherLink 5.7,2013-01-22 09:00:00,
2013-01-22 04:15:00,58.0,43.7,29.99,North,0,0.0,5.0,59,0.00,,,-99.99,WeatherLink 5.7,2013-01-22 09:15:00,
2013-01-22 04:30:00,57.8,44.0,29.99,North,-999,0.0,0.0,60,0.00,,,-99.99,WeatherLink 5.7,2013-01-22 09:30:00,
2013-01-22 04:45:00,57.5,43.7,30.00,North,0,0.0,4.0,60,0.00,,,-99.99,WeatherLink 5.7,2013-01-22 09:45:00,
2013-01-22 05:00:00,57.2,43.0,30.00,North,-999,0.0,0.0,59,0.00,,,-99.99,WeatherLink 5.7,2013-01-22 10:00:00,
2013-01-22 05:15:00,57.0,42.8,30.00,North,0,0.0,6.0,59,0.00,,,-99.99,WeatherLink 5.7,2013-01-22 10:15:00,
2013-01-22 05:30:00,56.8,42.6,30.01,North,-999,0.0,0.0,59,0.00,,,-99.99,WeatherLink 5.7,2013-01-22 10:30:00,
2013-01-22 05:45:00,56.5,42.8,30.01,North,-999,0.0,0.0,60,0.00,,,-99.99,WeatherLink 5.7,2013-01-22 10:45:00,
2013-01-22 06:00:00,56.1,42.4,30.02,North,-999,0.0,0.0,60,0.00,,,-99.99,WeatherLink 5.7,2013-01-22 11:00:00,
2013-01-22 06:15:00,55.8,42.1,30.02,North,0,0.0,4.0,60,0.00,,,-99.99,WeatherLink 5.7,2013-01-22 11:15:00,
2013-01-22 06:30:00,55.7,42.5,30.03,North,-999,0.0,0.0,61,0.00,,,-99.99,WeatherLink 5.7,2013-01-22 11:30:00,
2013-01-22 06:45:00,55.7,42.0,30.04,North,0,0.0,4.0,60,0.00,,,-99.99,WeatherLink 5.7,2013-01-22 11:45:00,
2013-01-22 07:00:00,55.7,42.0,30.05,North,0,0.0,5.0,60,0.00,,,-99.99,WeatherLink 5.7,2013-01-22 12:00:00,
2013-01-22 07:15:00,55.6,41.5,30.07,North,0,0.0,5.0,59,0.00,,,-99.99,WeatherLink 5.7,2013-01-22 12:15:00,
2013-01-22 07:30:00,55.3,41.2,30.07,North,0,0.0,7.0,59,0.00,,,-99.99,WeatherLink 5.7,2013-01-22 12:30:00,
2013-01-22 07:45:00,55.3,41.2,30.08,North,0,1.0,7.0,59,0.00,,,-99.99,WeatherLink 5.7,2013-01-22 12:45:00,
2013-01-22 08:00:00,55.4,40.9,30.08,North,0,4.0,13.0,58,0.00,,,-99.99,WeatherLink 5.7,2013-01-22 13:00:00,
2013-01-22 08:15:00,55.6,41.0,30.09,North,0,2.0,10.0,58,0.00,,,-99.99,WeatherLink 5.7,2013-01-22 13:15:00,
2013-01-22 08:30:00,55.7,40.7,30.11,North,0,2.0,11.0,57,0.00,,,-99.99,WeatherLink 5.7,2013-01-22 13:30:00,
2013-01-22 08:45:00,56.0,39.6,30.11,North,0,4.0,14.0,54,0.00,,,-99.99,WeatherLink 5.7,2013-01-22 13:45:00,
2013-01-22 09:00:00,56.1,39.2,30.12,North,0,3.0,13.0,53,0.00,,,-99.99,WeatherLink 5.7,2013-01-22 14:00:00,
2013-01-22 09:15:00,56.4,39.0,30.13,North,0,3.0,15.0,52,0.00,,,-99.99,WeatherLink 5.7,2013-01-22 14:15:00,
2013-01-22 09:30:00,56.7,39.3,30.14,North,0,1.0,9.0,52,0.00,,,-99.99,WeatherLink 5.7,2013-01-22 14:30:00,
2013-01-22 09:45:00,57.1,39.6,30.13,North,0,2.0,11.0,52,0.00,,,-99.99,WeatherLink 5.7,2013-01-22 14:45:00,
2013-01-22 10:00:00,57.8,38.8,30.14,North,0,4.0,16.0,49,0.00,,,-99.99,WeatherLink 5.7,2013-01-22 15:00:00,
2013-01-22 10:15:00,58.5,38.9,30.14,North,0,1.0,12.0,48,0.00,,,-99.99,WeatherLink 5.7,2013-01-22 15:15:00,
2013-01-22 10:30:00,59.3,39.6,30.14,North,0,0.0,7.0,48,0.00,,,-99.99,WeatherLink 5.7,2013-01-22 15:30:00,
2013-01-22 10:45:00,60.2,39.9,30.14,North,0,0.0,9.0,47,0.00,,,-99.99,WeatherLink 5.7,2013-01-22 15:45:00,
2013-01-22 11:00:00,61.3,40.3,30.14,North,0,1.0,13.0,46,0.00,,,-99.99,WeatherLink 5.7,2013-01-22 16:00:00,
2013-01-22 11:15:00,62.1,39.9,30.14,North,0,3.0,12.0,44,0.00,,,-99.99,WeatherLink 5.7,2013-01-22 16:15:00,
2013-01-22 11:30:00,62.5,39.7,30.13,North,0,2.0,11.0,43,0.00,,,-99.99,WeatherLink 5.7,2013-01-22 16:30:00,
2013-01-22 11:45:00,63.0,38.9,30.13,North,0,2.0,13.0,41,0.00,,,-99.99,WeatherLink 5.7,2013-01-22 16:45:00,
2013-01-22 12:00:00,63.8,38.4,30.12,North,0,1.0,10.0,39,0.00,,,-99.99,WeatherLink 5.7,2013-01-22 17:00:00,
2013-01-22 12:15:00,64.3,36.8,30.12,North,0,2.0,10.0,36,0.00,,,-99.99,WeatherLink 5.7,2013-01-22 17:15:00,
2013-01-22 12:30:00,64.5,36.2,30.11,North,0,2.0,11.0,35,0.00,,,-99.99,WeatherLink 5.7,2013-01-22 17:30:00,
2013-01-22 12:45:00,65.0,35.2,30.11,North,0,4.0,13.0,33,0.00,,,-99.99,WeatherLink 5.7,2013-01-22 17:45:00,
2013-01-22 13:00:00,65.3,34.7,30.10,North,0,3.0,12.0,32,0.00,,,-99.99,WeatherLink 5.7,2013-01-22 18:00:00,
2013-01-22 13:15:00,65.3,33.0,30.10,North,0,2.0,13.0,30,0.00,,,-99.99,WeatherLink 5.7,2013-01-22 18:15:00,
2013-01-22 13:30:00,65.5,33.2,30.10,North,0,2.0,14.0,30,0.00,,,-99.99,WeatherLink 5.7,2013-01-22 18:30:00,
2013-01-22 13:45:00,65.3,32.2,30.10,North,0,1.0,12.0,29,0.00,,,-99.99,WeatherLink 5.7,2013-01-22 18:45:00,
2013-01-22 14:00:00,65.3,32.2,30.10,North,0,2.0,12.0,29,0.00,,,-99.99,WeatherLink 5.7,2013-01-22 19:00:00,
2013-01-22 14:15:00,65.2,31.2,30.10,North,0,1.0,11.0,28,0.00,,,-99.99,WeatherLink 5.7,2013-01-22 19:15:00,
2013-01-22 14:30:00,65.1,32.0,30.10,North,0,1.0,10.0,29,0.00,,,-99.99,WeatherLink 5.7,2013-01-22 19:30:00,
2013-01-22 14:45:00,65.3,31.3,30.10,North,0,2.0,13.0,28,0.00,,,-99.99,WeatherLink 5.7,2013-01-22 19:45:00,
2013-01-22 15:00:00,65.2,31.2,30.10,North,0,2.0,13.0,28,0.00,,,-99.99,WeatherLink 5.7,2013-01-22 20:00:00,
2013-01-22 15:15:00,65.2,31.2,30.10,North,0,1.0,13.0,28,0.00,,,-99.99,WeatherLink 5.7,2013-01-22 20:15:00,
2013-01-22 15:30:00,64.9,31.0,30.11,North,0,1.0,7.0,28,0.00,,,-99.99,WeatherLink 5.7,2013-01-22 20:30:00,
2013-01-22 15:45:00,64.7,30.8,30.11,North,0,0.0,9.0,28,0.00,,,-99.99,WeatherLink 5.7,2013-01-22 20:45:00,
2013-01-22 16:00:00,64.7,29.9,30.11,North,0,1.0,12.0,27,0.00,,,-99.99,WeatherLink 5.7,2013-01-22 21:00:00,
2013-01-22 16:15:00,64.3,30.5,30.11,North,0,1.0,9.0,28,0.00,,,-99.99,WeatherLink 5.7,2013-01-22 21:15:00,
2013-01-22 16:30:00,64.0,29.3,30.12,North,0,1.0,12.0,27,0.00,,,-99.99,WeatherLink 5.7,2013-01-22 21:30:00,
2013-01-22 16:45:00,63.5,28.9,30.12,North,0,1.0,11.0,27,0.00,,,-99.99,WeatherLink 5.7,2013-01-22 21:45:00,
2013-01-22 17:00:00,63.1,28.5,30.13,North,0,0.0,7.0,27,0.00,,,-99.99,WeatherLink 5.7,2013-01-22 22:00:00,
2013-01-22 17:15:00,62.5,28.0,30.13,North,0,0.0,3.0,27,0.00,,,-99.99,WeatherLink 5.7,2013-01-22 22:15:00,
2013-01-22 17:30:00,61.9,27.5,30.14,North,0,0.0,2.0,27,0.00,,,-99.99,WeatherLink 5.7,2013-01-22 22:30:00,
2013-01-22 17:45:00,61.2,27.8,30.14,North,0,0.0,4.0,28,0.00,,,-99.99,WeatherLink 5.7,2013-01-22 22:45:00,
2013-01-22 18:00:00,60.5,27.2,30.14,North,-999,0.0,0.0,28,0.00,,,-99.99,WeatherLink 5.7,2013-01-22 23:00:00,
2013-01-22 18:15:00,59.8,27.4,30.15,North,-999,0.0,0.0,29,0.00,,,-99.99,WeatherLink 5.7,2013-01-22 23:15:00,
2013-01-22 18:30:00,59.0,27.6,30.15,North,-999,0.0,0.0,30,0.00,,,-99.99,WeatherLink 5.7,2013-01-22 23:30:00,
2013-01-22 18:45:00,58.1,27.6,30.15,North,-999,0.0,0.0,31,0.00,,,-99.99,WeatherLink 5.7,2013-01-22 23:45:00,
2013-01-22 19:00:00,57.2,28.3,30.15,North,-999,0.0,0.0,33,0.00,,,-99.99,WeatherLink 5.7,2013-01-23 00:00:00,
2013-01-22 19:15:00,56.4,28.3,30.15,North,-999,0.0,0.0,34,0.00,,,-99.99,WeatherLink 5.7,2013-01-23 00:15:00,
2013-01-22 19:30:00,55.8,29.2,30.15,North,-999,0.0,0.0,36,0.00,,,-99.99,WeatherLink 5.7,2013-01-23 00:30:00,
2013-01-22 19:45:00,55.2,29.4,30.16,North,-999,0.0,0.0,37,0.00,,,-99.99,WeatherLink 5.7,2013-01-23 00:45:00,
2013-01-22 20:00:00,54.7,30.8,30.16,North,-999,0.0,0.0,40,0.00,,,-99.99,WeatherLink 5.7,2013-01-23 01:00:00,
2013-01-22 20:15:00,54.3,30.5,30.16,North,-999,0.0,0.0,40,0.00,,,-99.99,WeatherLink 5.7,2013-01-23 01:15:00,
2013-01-22 20:30:00,53.8,31.2,30.17,North,-999,0.0,0.0,42,0.00,,,-99.99,WeatherLink 5.7,2013-01-23 01:30:00,
2013-01-22 20:45:00,53.3,31.9,30.18,North,-999,0.0,0.0,44,0.00,,,-99.99,WeatherLink 5.7,2013-01-23 01:45:00,
2013-01-22 21:00:00,52.8,31.5,30.18,North,-999,0.0,0.0,44,0.00,,,-99.99,WeatherLink 5.7,2013-01-23 02:00:00,
2013-01-22 21:15:00,52.2,32.0,30.18,North,-999,0.0,0.0,46,0.00,,,-99.99,WeatherLink 5.7,2013-01-23 02:15:00,
2013-01-22 21:30:00,51.6,32.5,30.18,North,-999,0.0,0.0,48,0.00,,,-99.99,WeatherLink 5.7,2013-01-23 02:30:00,
2013-01-22 21:45:00,51.1,32.1,30.17,North,-999,0.0,0.0,48,0.00,,,-99.99,WeatherLink 5.7,2013-01-23 02:45:00,
2013-01-22 22:00:00,50.5,34.0,30.18,North,-999,0.0,0.0,53,0.00,,,-99.99,WeatherLink 5.7,2013-01-23 03:00:00,
2013-01-22 22:15:00,50.1,32.7,30.18,North,-999,0.0,0.0,51,0.00,,,-99.99,WeatherLink 5.7,2013-01-23 03:15:00,
2013-01-22 22:30:00,49.7,33.7,30.18,North,-999,0.0,0.0,54,0.00,,,-99.99,WeatherLink 5.7,2013-01-23 03:30:00,
2013-01-22 22:45:00,49.3,33.8,30.18,North,-999,0.0,0.0,55,0.00,,,-99.99,WeatherLink 5.7,2013-01-23 03:45:00,
2013-01-22 23:00:00,48.9,33.9,30.18,North,-999,0.0,0.0,56,0.00,,,-99.99,WeatherLink 5.7,2013-01-23 04:00:00,
2013-01-22 23:15:00,48.5,34.4,30.18,North,-999,0.0,0.0,58,0.00,,,-99.99,WeatherLink 5.7,2013-01-23 04:15:00,
2013-01-22 23:30:00,48.3,33.8,30.18,North,-999,0.0,0.0,57,0.00,,,-99.99,WeatherLink 5.7,2013-01-23 04:30:00,
2013-01-22 23:45:00,48.2,34.5,30.18,North,-999,0.0,0.0,59,0.00,,,-99.99,WeatherLink 5.7,2013-01-23 04:45:00,